QPF
0.00 0.00 0.01 0.00 0.00 0.00 0.00 0.02 0.03 0.04 0.06 0.10 0.15 0.17 0.17 0.21 0.34 0.45 0.42 0.30 0.31 0.32 0.30 0.29 0.27 0.24 0.15 0.06 0.02 0.02 0.01 0.00 0.00 0.00 0.00 0.00 0.00 0.00 0.00 0.00 0.00 0.00 0.00
0.01 0.01 0.01 0.01 0.01 0.00 0.00 0.00 0.01 0.03 0.04 0.04 0.07 0.10 0.13 0.17 0.26 0.48 0.59 0.55 0.47 0.33 0.27 0.27 0.21 0.11 0.04 0.02 0.01 0.00 0.00 0.00 0.00 0.00 0.00 0.00 0.00 0.00 0.00 0.00 0.00 0.01 0.01
0.00 0.01 0.01 0.01 0.01 0.00 0.00 0.00 0.01 0.02 0.03 0.03 0.05 0.09 0.14 0.15 0.17 0.29 0.40 0.40 0.31 0.21 0.18 0.15 0.09 0.04 0.01 0.01 0.00 0.00 0.00 0.00 0.00 0.00 0.00 0.00 0.00 0.00 0.00 0.00 0.00 0.00 0.01
0.00 0.01 0.01 0.00 0.01 0.02 0.02 0.02 0.03 0.02 0.02 0.04 0.08 0.12 0.13 0.10 0.09 0.15 0.20 0.18 0.13 0.07 0.05 0.04 0.02 0.01 0.00 0.00 0.00 0.00 0.00 0.00 0.00 0.00 0.00 0.00 0.00 0.00 0.00 0.00 0.00 0.00 0.00
0.00 0.02 0.01 0.01 0.01 0.00 0.01 0.02 0.02 0.01 0.00 0.03 0.08 0.10 0.08 0.05 0.09 0.14 0.13 0.08 0.04 0.02 0.01 0.00 0.00 0.00 0.00 0.00 0.00 0.00 0.00 0.00 0.00 0.00 0.00 0.00 0.00 0.00 0.00 0.00 0.00 0.00 0.00
0.01 0.04 0.02 0.02 0.02 0.00 0.01 0.01 0.01 0.00 0.00 0.01 0.02 0.04 0.04 0.03 0.06 0.08 0.05 0.03 0.01 0.00 0.00 0.00 0.00 0.00 0.00 0.00 0.00 0.00 0.00 0.00 0.00 0.00 0.00 0.00 0.00 0.00 0.00 0.00 0.00 0.00 0.00
0.01 0.06 0.06 0.05 0.04 0.01 0.00 0.00 0.00 0.00 0.00 0.00 0.00 0.00 0.00 0.00 0.01 0.01 0.01 0.00 0.00 0.00 0.00 0.00 0.00 0.00 0.00 0.00 0.00 0.00 0.00 0.00 0.00 0.00 0.00 0.00 0.00 0.00 0.00 0.00 0.00 0.00 0.00
0.01 0.06 0.09 0.08 0.05 0.02 0.00 0.00 0.00 0.00 0.00 0.00 0.00 0.00 0.00 0.00 0.00 0.00 0.00 0.00 0.00 0.00 0.00 0.00 0.00 0.00 0.00 0.00 0.00 0.00 0.00 0.00 0.00 0.00 0.00 0.00 0.00 0.00 0.00 0.00 0.00 0.00 0.00
0.02 0.03 0.06 0.09 0.07 0.03 0.01 0.00 0.00 0.00 0.00 0.00 0.00 0.00 0.00 0.00 0.00 0.00 0.00 0.00 0.00 0.00 0.00 0.00 0.00 0.00 0.00 0.00 0.00 0.00 0.00 0.00 0.00 0.00 0.00 0.00 0.00 0.00 0.00 0.00 0.00 0.00 0.00
0.05 0.06 0.08 0.09 0.08 0.03 0.01 0.00 0.00 0.00 0.00 0.00 0.00 0.00 0.00 0.00 0.00 0.00 0.00 0.00 0.00 0.00 0.00 0.00 0.00 0.00 0.00 0.00 0.00 0.00 0.00 0.00 0.00 0.00 0.00 0.00 0.00 0.00 0.00 0.00 0.00 0.00 0.00
0.12 0.12 0.13 0.12 0.09 0.04 0.01 0.00 0.01 0.01 0.00 0.01 0.01 0.01 0.00 0.00 0.00 0.00 0.00 0.00 0.01 0.01 0.00 0.00 0.00 0.00 0.00 0.00 0.00 0.00 0.00 0.00 0.00 0.00 0.00 0.00 0.00 0.00 0.00 0.00 0.00 0.00 0.00
0.17 0.16 0.17 0.16 0.11 0.05 0.01 0.00 0.01 0.01 0.01 0.01 0.04 0.03 0.01 0.00 0.00 0.00 0.00 0.00 0.00 0.00 0.00 0.00 0.00 0.00 0.00 0.00 0.00 0.00 0.00 0.00 0.00 0.00 0.00 0.00 0.00 0.00 0.00 0.00 0.00 0.00 0.00
0.14 0.15 0.16 0.18 0.13 0.08 0.04 0.01 0.01 0.01 0.01 0.01 0.02 0.05 0.04 0.01 0.00 0.00 0.00 0.00 0.00 0.00 0.00 0.00 0.00 0.00 0.00 0.00 0.00 0.00 0.00 0.00 0.00 0.00 0.00 0.00 0.00 0.00 0.00 0.00 0.00 0.00 0.00
0.14 0.14 0.15 0.15 0.15 0.12 0.08 0.04 0.01 0.01 0.01 0.01 0.01 0.03 0.04 0.02 0.00 0.00 0.00 0.00 0.00 0.00 0.00 0.00 0.00 0.00 0.00 0.00 0.00 0.00 0.00 0.00 0.00 0.00 0.00 0.00 0.00 0.00 0.00 0.00 0.00 0.00 0.00
0.13 0.14 0.16 0.16 0.16 0.15 0.11 0.10 0.05 0.02 0.01 0.01 0.01 0.01 0.01 0.00 0.00 0.00 0.00 0.00 0.00 0.00 0.00 0.00 0.00 0.00 0.00 0.00 0.00 0.00 0.00 0.00 0.00 0.00 0.00 0.00 0.00 0.00 0.00 0.00 0.00 0.00 0.00
0.13 0.13 0.16 0.17 0.18 0.16 0.13 0.11 0.09 0.04 0.02 0.01 0.02 0.02 0.00 0.00 0.00 0.00 0.00 0.00 0.00 0.00 0.00 0.00 0.00 0.00 0.00 0.00 0.00 0.00 0.00 0.00 0.00 0.00 0.00 0.00 0.00 0.00 0.00 0.00 0.00 0.00 0.00
0.18 0.15 0.18 0.20 0.20 0.15 0.09 0.06 0.06 0.04 0.02 0.01 0.00 0.01 0.00 0.00 0.00 0.00 0.00 0.00 0.00 0.00 0.00 0.00 0.00 0.00 0.00 0.00 0.00 0.00 0.00 0.00 0.00 0.00 0.00 0.00 0.00 0.00 0.00 0.00 0.00 0.00 0.00
0.38 0.28 0.22 0.20 0.22 0.18 0.09 0.04 0.03 0.03 0.02 0.01 0.00 0.00 0.00 0.00 0.00 0.00 0.00 0.00 0.00 0.00 0.00 0.00 0.00 0.00 0.00 0.00 0.00 0.00 0.00 0.00 0.00 0.00 0.00 0.00 0.00 0.00 0.00 0.00 0.00 0.00 0.00
0.29 0.33 0.28 0.22 0.23 0.20 0.13 0.06 0.02 0.02 0.01 0.01 0.00 0.00 0.00 0.00 0.00 0.00 0.00 0.00 0.00 0.00 0.00 0.00 0.00 0.00 0.00 0.00 0.00 0.00 0.00 0.00 0.00 0.00 0.00 0.00 0.00 0.00 0.00 0.00 0.00 0.00 0.00
0.13 0.20 0.24 0.26 0.24 0.20 0.13 0.07 0.03 0.02 0.01 0.01 0.00 0.00 0.00 0.00 0.00 0.00 0.00 0.00 0.00 0.00 0.00 0.00 0.00 0.00 0.00 0.00 0.00 0.00 0.00 0.00 0.00 0.00 0.00 0.00 0.00 0.00 0.00 0.00 0.00 0.00 0.00
0.13 0.15 0.16 0.22 0.24 0.17 0.10 0.06 0.03 0.02 0.01 0.00 0.00 0.00 0.00 0.00 0.00 0.00 0.00 0.00 0.00 0.00 0.00 0.00 0.00 0.00 0.00 0.00 0.00 0.00 0.00 0.00 0.00 0.00 0.00 0.00 0.00 0.00 0.00 0.00 0.00 0.00 0.00
0.18 0.22 0.15 0.16 0.20 0.14 0.07 0.04 0.02 0.01 0.01 0.00 0.00 0.00 0.00 0.00 0.00 0.00 0.00 0.00 0.00 0.00 0.00 0.00 0.00 0.00 0.00 0.00 0.00 0.00 0.00 0.00 0.00 0.00 0.00 0.00 0.00 0.00 0.00 0.00 0.00 0.00 0.00
0.19 0.28 0.18 0.13 0.15 0.11 0.05 0.02 0.01 0.01 0.01 0.00 0.00 0.00 0.00 0.00 0.00 0.00 0.00 0.00 0.00 0.00 0.00 0.00 0.00 0.00 0.00 0.00 0.00 0.00 0.00 0.00 0.00 0.00 0.00 0.00 0.00 0.00 0.00 0.00 0.00 0.00 0.00
0.19 0.27 0.19 0.10 0.08 0.06 0.03 0.01 0.01 0.01 0.00 0.01 0.01 0.00 0.00 0.00 0.00 0.00 0.00 0.00 0.00 0.00 0.00 0.00 0.00 0.00 0.00 0.00 0.00 0.00 0.00 0.00 0.00 0.00 0.00 0.00 0.00 0.00 0.00 0.00 0.00 0.00 0.00
0.20 0.26 0.18 0.09 0.04 0.02 0.02 0.01 0.01 0.00 0.00 0.00 0.00 0.00 0.00 0.00 0.00 0.00 0.00 0.00 0.00 0.00 0.00 0.00 0.00 0.00 0.00 0.00 0.00 0.00 0.00 0.00 0.00 0.00 0.00 0.00 0.00 0.00 0.00 0.00 0.00 0.00 0.00
0.18 0.23 0.18 0.08 0.02 0.01 0.01 0.01 0.01 0.00 0.00 0.00 0.00 0.00 0.00 0.00 0.00 0.00 0.00 0.00 0.00 0.00 0.00 0.00 0.00 0.00 0.00 0.00 0.00 0.00 0.00 0.00 0.00 0.00 0.00 0.00 0.00 0.00 0.00 0.00 0.00 0.00 0.00
MSLP
1009.29 1009.56 1009.85 1010.11 1010.27 1010.30 1010.17 1009.87 1009.44 1008.90 1008.30 1007.69 1007.11 1006.61 1006.20 1005.91 1005.73 1005.67 1005.70 1005.83 1006.01 1006.25 1006.50 1006.77 1007.04 1007.31 1007.57 1007.84 1008.10 1008.37 1008.62 1008.85 1009.04 1009.18 1009.24 1009.22 1009.11 1008.93 1008.71 1008.46 1008.22 1008.02 1007.88
1008.95 1009.19 1009.47 1009.74 1009.94 1010.03 1009.97 1009.76 1009.42 1008.96 1008.44 1007.89 1007.36 1006.89 1006.51 1006.24 1006.07 1006.01 1006.05 1006.16 1006.32 1006.52 1006.74 1006.96 1007.18 1007.40 1007.63 1007.87 1008.14 1008.42 1008.71 1009.00 1009.26 1009.46 1009.59 1009.63 1009.58 1009.43 1009.22 1008.98 1008.72 1008.50 1008.32
1008.54 1008.74 1009.00 1009.27 1009.49 1009.63 1009.65 1009.55 1009.31 1008.97 1008.56 1008.11 1007.67 1007.27 1006.94 1006.70 1006.57 1006.52 1006.56 1006.66 1006.81 1006.98 1007.15 1007.33 1007.50 1007.67 1007.86 1008.07 1008.31 1008.59 1008.89 1009.20 1009.50 1009.76 1009.95 1010.05 1010.04 1009.95 1009.77 1009.54 1009.29 1009.04 1008.83
1008.11 1008.25 1008.47 1008.72 1008.96 1009.15 1009.25 1009.25 1009.14 1008.94 1008.66 1008.34 1008.01 1007.71 1007.45 1007.27 1007.16 1007.14 1007.18 1007.28 1007.41 1007.55 1007.70 1007.83 1007.96 1008.08 1008.22 1008.40 1008.60 1008.86 1009.15 1009.46 1009.78 1010.06 1010.29 1010.43 1010.47 1010.42 1010.28 1010.08 1009.84 1009.59 1009.35
1007.72 1007.79 1007.95 1008.17 1008.41 1008.64 1008.81 1008.91 1008.93 1008.87 1008.75 1008.57 1008.36 1008.16 1007.99 1007.87 1007.80 1007.79 1007.84 1007.93 1008.05 1008.17 1008.29 1008.40 1008.49 1008.58 1008.69 1008.82 1008.99 1009.20 1009.46 1009.75 1010.05 1010.34 1010.58 1010.75 1010.83 1010.82 1010.72 1010.55 1010.33 1010.08 1009.83
1007.43 1007.42 1007.51 1007.69 1007.91 1008.15 1008.38 1008.57 1008.71 1008.79 1008.80 1008.77 1008.69 1008.60 1008.51 1008.44 1008.41 1008.42 1008.47 1008.55 1008.65 1008.76 1008.87 1008.97 1009.05 1009.12 1009.20 1009.30 1009.42 1009.60 1009.81 1010.06 1010.32 1010.58 1010.81 1010.99 1011.09 1011.11 1011.05 1010.91 1010.72 1010.49 1010.24
1007.27 1007.18 1007.20 1007.31 1007.49 1007.73 1007.99 1008.25 1008.49 1008.68 1008.83 1008.92 1008.96 1008.97 1008.95 1008.93 1008.93 1008.95 1009.00 1009.08 1009.18 1009.28 1009.39 1009.49 1009.57 1009.65 1009.71 1009.79 1009.89 1010.02 1010.18 1010.37 1010.58 1010.80 1011.00 1011.16 1011.27 1011.31 1011.27 1011.17 1011.02 1010.81 1010.58
1007.25 1007.08 1007.01 1007.05 1007.18 1007.38 1007.65 1007.95 1008.25 1008.54 1008.79 1008.99 1009.13 1009.22 1009.27 1009.30 1009.32 1009.35 1009.40 1009.48 1009.58 1009.70 1009.82 1009.94 1010.04 1010.14 1010.22 1010.29 1010.37 1010.46 1010.58 1010.71 1010.87 1011.03 1011.18 1011.31 1011.40 1011.45 1011.44 1011.37 1011.24 1011.07 1010.86
1007.30 1007.06 1006.91 1006.86 1006.92 1007.08 1007.32 1007.63 1007.98 1008.33 1008.66 1008.94 1009.17 1009.33 1009.44 1009.51 1009.56 1009.61 1009.67 1009.75 1009.87 1010.01 1010.16 1010.31 1010.46 1010.58 1010.69 1010.78 1010.86 1010.93 1011.01 1011.09 1011.19 1011.29 1011.40 1011.49 1011.56 1011.60 1011.60 1011.55 1011.45 1011.31 1011.13
1007.35 1007.04 1006.81 1006.67 1006.65 1006.76 1006.96 1007.26 1007.62 1008.01 1008.40 1008.75 1009.05 1009.28 1009.45 1009.56 1009.65 1009.73 1009.81 1009.92 1010.06 1010.23 1010.43 1010.63 1010.82 1011.00 1011.15 1011.26 1011.35 1011.42 1011.48 1011.53 1011.58 1011.64 1011.69 1011.75 1011.79 1011.82 1011.81 1011.78 1011.70 1011.59 1011.44
1007.30 1006.94 1006.63 1006.42 1006.32 1006.36 1006.52 1006.79 1007.15 1007.57 1008.00 1008.41 1008.77 1009.07 1009.30 1009.48 1009.62 1009.74 1009.87 1010.02 1010.20 1010.41 1010.66 1010.91 1011.16 1011.38 1011.58 1011.73 1011.85 1011.93 1011.98 1012.01 1012.04 1012.06 1012.08 1012.11 1012.13 1012.14 1012.13 1012.10 1012.04 1011.94 1011.81
1007.09 1006.68 1006.31 1006.03 1005.87 1005.84 1005.95 1006.20 1006.55 1006.99 1007.45 1007.91 1008.34 1008.72 1009.03 1009.29 1009.50 1009.69 1009.87 1010.08 1010.31 1010.57 1010.86 1011.17 1011.46 1011.74 1011.98 1012.18 1012.32 1012.42 1012.48 1012.52 1012.54 1012.55 1012.55 1012.56 1012.57 1012.57 1012.55 1012.52 1012.47 1012.38 1012.26
1006.68 1006.23 1005.82 1005.48 1005.26 1005.19 1005.26 1005.49 1005.84 1006.29 1006.79 1007.31 1007.81 1008.27 1008.67 1009.02 1009.32 1009.59 1009.85 1010.12 1010.41 1010.73 1011.06 1011.40 1011.74 1012.05 1012.33 1012.56 1012.74 1012.86 1012.95 1013.00 1013.03 1013.04 1013.05 1013.06 1013.07 1013.07 1013.05 1013.02 1012.96 1012.87 1012.75
1006.07 1005.60 1005.16 1004.79 1004.53 1004.42 1004.47 1004.69 1005.04 1005.51 1006.05 1006.64 1007.22 1007.77 1008.27 1008.72 1009.12 1009.48 1009.83 1010.16 1010.51 1010.86 1011.23 1011.59 1011.95 1012.29 1012.59 1012.84 1013.05 1013.20 1013.32 1013.40 1013.45 1013.49 1013.53 1013.55 1013.57 1013.58 1013.57 1013.54 1013.48 1013.39 1013.27
1005.30 1004.82 1004.37 1003.99 1003.72 1003.59 1003.63 1003.84 1004.21 1004.70 1005.29 1005.94 1006.60 1007.24 1007.85 1008.40 1008.90 1009.36 1009.78 1010.18 1010.57 1010.95 1011.33 1011.71 1012.07 1012.41 1012.72 1012.99 1013.21 1013.39 1013.54 1013.66 1013.75 1013.83 1013.90 1013.95 1014.00 1014.03 1014.04 1014.02 1013.97 1013.88 1013.75
1004.43 1003.97 1003.52 1003.14 1002.87 1002.75 1002.80 1003.01 1003.40 1003.92 1004.55 1005.26 1005.99 1006.72 1007.42 1008.07 1008.66 1009.20 1009.69 1010.14 1010.56 1010.96 1011.34 1011.71 1012.07 1012.39 1012.69 1012.96 1013.20 1013.40 1013.58 1013.74 1013.88 1014.00 1014.11 1014.21 1014.30 1014.36 1014.40 1014.40 1014.37 1014.29 1014.16
1003.53 1003.08 1002.66 1002.30 1002.05 1001.95 1002.00 1002.24 1002.64 1003.19 1003.86 1004.61 1005.40 1006.20 1006.98 1007.71 1008.37 1008.97 1009.52 1010.00 1010.44 1010.85 1011.22 1011.57 1011.90 1012.21 1012.50 1012.76 1013.01 1013.23 1013.44 1013.64 1013.82 1013.99 1014.16 1014.31 1014.44 1014.54 1014.62 1014.65 1014.65 1014.59 1014.49
1002.62 1002.22 1001.83 1001.51 1001.28 1001.20 1001.28 1001.52 1001.94 1002.51 1003.21 1004.00 1004.84 1005.69 1006.52 1007.30 1008.02 1008.67 1009.24 1009.75 1010.19 1010.59 1010.95 1011.28 1011.59 1011.87 1012.15 1012.41 1012.66 1012.90 1013.14 1013.37 1013.60 1013.82 1014.03 1014.23 1014.41 1014.56 1014.68 1014.76 1014.79 1014.77 1014.71
1001.74 1001.38 1001.04 1000.75 1000.57 1000.51 1000.60 1000.87 1001.30 1001.89 1002.60 1003.41 1004.28 1005.16 1006.02 1006.84 1007.59 1008.26 1008.85 1009.36 1009.80 1010.18 1010.53 1010.84 1011.12 1011.40 1011.67 1011.93 1012.19 1012.45 1012.72 1012.98 1013.25 1013.51 1013.77 1014.01 1014.23 1014.43 1014.60 1014.72 1014.80 1014.84 1014.82
1000.87 1000.56 1000.27 1000.03 999.87 999.85 999.97 1000.25 1000.70 1001.29 1002.02 1002.84 1003.72 1004.62 1005.49 1006.32 1007.08 1007.76 1008.35 1008.85 1009.28 1009.65 1009.98 1010.28 1010.56 1010.83 1011.09 1011.37 1011.65 1011.93 1012.22 1012.51 1012.81 1013.10 1013.39 1013.67 1013.93 1014.17 1014.38 1014.55 1014.69 1014.78 1014.82
1000.02 999.75 999.51 999.30 999.19 999.19 999.34 999.64 1000.10 1000.72 1001.45 1002.28 1003.17 1004.07 1004.94 1005.77 1006.52 1007.19 1007.77 1008.26 1008.68 1009.04 1009.35 1009.64 1009.92 1010.19 1010.47 1010.76 1011.06 1011.37 1011.68 1012.00 1012.32 1012.63 1012.94 1013.24 1013.52 1013.79 1014.04 1014.26 1014.45 1014.60 1014.71
999.16 998.94 998.73 998.56 998.48 998.52 998.70 999.03 999.52 1000.15 1000.90 1001.74 1002.62 1003.52 1004.39 1005.20 1005.94 1006.59 1007.15 1007.62 1008.02 1008.37 1008.68 1008.97 1009.25 1009.54 1009.83 1010.14 1010.46 1010.79 1011.12 1011.45 1011.78 1012.10 1012.42 1012.73 1013.03 1013.32 1013.60 1013.86 1014.10 1014.31 1014.49
998.31 998.11 997.93 997.81 997.76 997.84 998.05 998.42 998.94 999.60 1000.37 1001.22 1002.11 1003.01 1003.86 1004.66 1005.37 1006.00 1006.53 1006.98 1007.36 1007.70 1008.00 1008.29 1008.58 1008.87 1009.19 1009.51 1009.85 1010.19 1010.53 1010.87 1011.20 1011.53 1011.84 1012.15 1012.46 1012.76 1013.06 1013.36 1013.65 1013.92 1014.16
997.48 997.30 997.15 997.05 997.04 997.16 997.42 997.83 998.39 999.09 999.88 1000.75 1001.65 1002.54 1003.38 1004.15 1004.84 1005.43 1005.94 1006.36 1006.72 1007.03 1007.32 1007.61 1007.90 1008.21 1008.53 1008.87 1009.21 1009.56 1009.91 1010.24 1010.57 1010.89 1011.19 1011.50 1011.81 1012.12 1012.44 1012.77 1013.10 1013.42 1013.73
996.70 996.53 996.39 996.32 996.35 996.52 996.82 997.29 997.89 998.62 999.44 1000.33 1001.23 1002.11 1002.93 1003.68 1004.33 1004.89 1005.35 1005.74 1006.07 1006.37 1006.64 1006.92 1007.21 1007.52 1007.85 1008.19 1008.54 1008.89 1009.23 1009.56 1009.87 1010.18 1010.48 1010.78 1011.09 1011.41 1011.76 1012.12 1012.49 1012.86 1013.23
996.00 995.83 995.71 995.67 995.74 995.94 996.30 996.81 997.45 998.21 999.05 999.94 1000.83 1001.69 1002.49 1003.20 1003.81 1004.33 1004.75 1005.11 1005.41 1005.68 1005.94 1006.21 1006.49 1006.80 1007.12 1007.46 1007.81 1008.15 1008.49 1008.81 1009.11 1009.41 1009.71 1010.01 1010.32 1010.66 1011.03 1011.43 1011.85 1012.28 1012.70
Thickness
5685 5679 5672 5666 5661 5656 5653 5652 5651 5652 5654 5656 5659 5661 5662 5662 5662 5661 5660 5658 5657 5657 5657 5658 5657 5657 5657 5658 5660 5660 5659 5658 5654 5654 5657 5661 5666 5670 5674 5678 5680 5682 5684
5682 5675 5668 5661 5655 5650 5647 5645 5643 5642 5643 5644 5646 5647 5650 5651 5652 5653 5652 5652 5650 5649 5649 5649 5649 5649 5649 5649 5650 5651 5650 5651 5649 5645 5647 5651 5655 5660 5664 5666 5668 5670 5672
5677 5670 5663 5655 5649 5645 5642 5640 5638 5636 5635 5635 5635 5637 5638 5640 5642 5644 5644 5643 5642 5641 5641 5641 5641 5642 5642 5642 5643 5644 5644 5644 5643 5639 5637 5641 5646 5650 5653 5655 5657 5657 5659
5673 5665 5659 5652 5646 5642 5639 5636 5634 5631 5630 5629 5628 5628 5629 5630 5632 5634 5633 5632 5630 5630 5632 5633 5633 5635 5635 5636 5637 5637 5638 5636 5634 5631 5630 5633 5636 5639 5641 5642 5644 5646 5647
5669 5662 5656 5650 5643 5639 5635 5632 5629 5626 5624 5623 5622 5620 5620 5621 5623 5623 5622 5622 5621 5621 5623 5624 5625 5626 5628 5630 5630 5630 5631 5629 5627 5625 5624 5625 5625 5627 5627 5630 5631 5633 5635
5664 5659 5654 5646 5640 5635 5632 5628 5624 5620 5618 5616 5615 5613 5612 5613 5614 5615 5615 5614 5614 5614 5614 5615 5616 5618 5621 5624 5625 5625 5626 5623 5621 5620 5618 5617 5616 5616 5617 5618 5618 5619 5618
5657 5653 5648 5642 5636 5632 5629 5624 5620 5615 5612 5609 5607 5607 5607 5607 5608 5609 5609 5609 5608 5608 5608 5608 5609 5612 5615 5616 5617 5617 5617 5617 5618 5616 5614 5611 5609 5608 5609 5609 5607 5606 5606
5648 5646 5643 5638 5632 5628 5624 5620 5617 5611 5606 5602 5600 5601 5602 5602 5603 5602 5602 5602 5601 5600 5601 5601 5602 5603 5607 5609 5609 5609 5609 5610 5611 5611 5609 5606 5604 5603 5602 5601 5600 5598 5597
5632 5634 5636 5633 5628 5623 5619 5616 5613 5607 5601 5597 5595 5595 5596 5596 5598 5597 5596 5593 5592 5591 5593 5595 5597 5597 5600 5603 5602 5600 5601 5601 5605 5605 5604 5601 5599 5597 5596 5595 5590 5586 5582
5610 5617 5624 5626 5623 5619 5616 5613 5610 5605 5598 5594 5591 5591 5592 5592 5594 5592 5590 5588 5585 5585 5586 5589 5592 5592 5593 5595 5594 5593 5591 5590 5593 5595 5593 5591 5589 5587 5586 5583 5579 5573 5567
5594 5602 5608 5612 5615 5615 5612 5609 5606 5601 5595 5590 5588 5586 5587 5589 5590 5590 5588 5585 5583 5582 5582 5582 5584 5587 5587 5588 5588 5586 5585 5585 5585 5584 5582 5579 5578 5577 5575 5572 5568 5562 5555
5578 5585 5590 5597 5604 5608 5606 5605 5603 5597 5591 5587 5583 5580 5581 5584 5587 5586 5585 5584 5584 5582 5579 5578 5579 5581 5581 5582 5582 5581 5580 5579 5577 5574 5571 5568 5566 5564 5562 5561 5558 5553 5548
5559 5567 5575 5583 5592 5598 5601 5601 5599 5594 5590 5585 5581 5578 5576 5579 5583 5584 5583 5581 5580 5579 5577 5576 5576 5576 5576 5575 5577 5576 5575 5572 5570 5566 5562 5560 5558 5556 5555 5552 5549 5546 5542
5540 5550 5561 5571 5582 5589 5594 5598 5598 5593 5589 5585 5581 5578 5577 5577 5579 5580 5578 5577 5575 5575 5572 5572 5572 5572 5570 5571 5570 5569 5568 5567 5564 5560 5557 5555 5554 5551 5547 5542 5537 5534 5530
5522 5533 5546 5559 5572 5582 5589 5594 5598 5597 5595 5589 5585 5582 5580 5579 5582 5583 5580 5576 5573 5571 5567 5565 5564 5564 5563 5563 5563 5563 5563 5562 5559 5557 5554 5551 5547 5544 5539 5534 5530 5525 5520
5509 5519 5532 5548 5564 5576 5584 5588 5592 5594 5592 5590 5589 5586 5585 5586 5583 5580 5579 5577 5573 5570 5566 5562 5561 5560 5560 5558 5558 5557 5557 5557 5556 5554 5550 5546 5542 5537 5532 5529 5525 5520 5515
5500 5510 5522 5538 5556 5571 5580 5584 5585 5584 5585 5584 5585 5584 5584 5582 5580 5578 5576 5574 5571 5567 5563 5560 5558 5558 5558 5556 5555 5554 5554 5555 5553 5551 5547 5543 5539 5534 5529 5526 5523 5518 5513
5494 5504 5516 5533 5550 5566 5577 5584 5587 5586 5583 5580 5579 5580 5580 5579 5578 5576 5573 5568 5563 5562 5561 5559 5558 5558 5557 5556 5555 5554 5553 5552 5550 5547 5543 5540 5536 5532 5528 5524 5520 5517 5511
5487 5497 5511 5528 5545 5561 5574 5582 5586 5587 5587 5582 5575 5573 5574 5574 5573 5571 5569 5569 5566 5562 5560 5559 5559 5559 5558 5557 5556 5555 5553 5551 5548 5544 5540 5537 5534 5531 5528 5524 5519 5516 5508
5482 5496 5509 5524 5541 5557 5570 5578 5583 5585 5584 5581 5578 5574 5570 5567 5565 5563 5564 5567 5567 5565 5562 5560 5559 5559 5558 5557 5556 5554 5551 5549 5546 5542 5539 5536 5533 5530 5527 5523 5517 5512 5506
5481 5494 5510 5525 5541 5556 5568 5576 5580 5583 5583 5580 5578 5577 5575 5575 5573 5568 5566 5566 5566 5565 5563 5561 5560 5558 5557 5555 5554 5552 5550 5547 5545 5541 5537 5534 5530 5527 5524 5520 5515 5510 5505
5483 5496 5512 5527 5543 5557 5568 5575 5578 5582 5582 5580 5577 5573 5569 5575 5572 5568 5567 5567 5567 5566 5565 5562 5560 5559 5558 5556 5554 5551 5548 5545 5543 5539 5535 5532 5528 5525 5521 5518 5513 5508 5503
5489 5503 5517 5532 5546 5559 5569 5574 5578 5580 5580 5579 5577 5573 5566 5569 5570 5569 5569 5568 5566 5565 5564 5562 5560 5558 5558 5557 5555 5552 5549 5546 5544 5540 5535 5530 5526 5523 5520 5517 5513 5506 5501
5498 5512 5526 5539 5553 5565 5572 5576 5578 5580 5580 5579 5577 5575 5572 5571 5571 5570 5568 5566 5565 5564 5562 5561 5559 5558 5557 5555 5554 5552 5550 5548 5545 5541 5537 5532 5526 5522 5519 5516 5513 5507 5501
5510 5523 5536 5549 5562 5571 5575 5577 5579 5581 5580 5579 5578 5577 5574 5573 5572 5570 5567 5564 5563 5562 5561 5560 5559 5557 5556 5555 5554 5552 5550 5547 5543 5540 5535 5531 5526 5522 5518 5515 5511 5506 5500
5520 5533 5546 5559 5569 5575 5577 5579 5580 5581 5581 5580 5579 5578 5576 5575 5573 5570 5566 5564 5563 5562 5562 5560 5559 5558 5557 5555 5554 5552 5549 5545 5542 5539 5535 5531 5526 5522 5518 5513 5509 5504 5497